TimeCDT,TemperatureF,Dew PointF,Humidity,Sea Level PressureIn,VisibilityMPH,Wind Direction,Wind SpeedMPH,Gust SpeedMPH,PrecipitationIn,Events,Conditions,WindDirDegrees,DateUTC
12:55 AM,64,43,34,29.76,6,SW,4.5,,,,,230,2012-10-10 05:55:00
3:55 AM,62,44,40,29.81,6,WNW,2.2,,,,,300,2012-10-10 08:55:00
6:05 AM,46.4,39.2,76,30.26,8.0,Calm,Calm,-,N/A,,Clear,0,2012-10-10 11:05:00
6:48 AM,44.6,39.2,81,29.92,8.0,North,2.3,-,N/A,,Clear,350,2012-10-10 11:48:00
6:55 AM,53,41,54,29.91,6,Calm,Calm,,,,,,2012-10-10 11:55:00
7:42 AM,42.8,39.2,87,30.28,14.0,NNW,3.5,-,N/A,,Clear,340,2012-10-10 12:42:00
8:52 AM,50.0,41.0,71,30.31,12.0,North,3.5,-,N/A,,Clear,10,2012-10-10 13:52:00
9:41 AM,57.2,42.8,59,29.98,12.0,Calm,Calm,-,N/A,,Clear,0,2012-10-10 14:41:00
9:50 AM,59,44,46,30.03,19,Calm,Calm,,,,,,2012-10-10 14:50:00
10:42 AM,66.2,39.2,37,30.32,12.0,Calm,Calm,-,N/A,,Clear,0,2012-10-10 15:42:00
11:42 AM,71.6,37.4,29,30.32,12.0,Calm,Calm,-,N/A,,Clear,0,2012-10-10 16:42:00
12:45 PM,77.0,35.6,22,29.90,12.0,Calm,Calm,-,N/A,,Clear,0,2012-10-10 17:45:00
1:51 PM,78.8,32.0,18,30.25,14.0,East,8.1,-,N/A,,Clear,90,2012-10-10 18:51:00
2:47 PM,80.6,33.8,18,30.21,14.0,SSE,5.8,-,N/A,,Clear,160,2012-10-10 19:47:00
3:40 PM,85,46,16,29.80,25,ESE,2.2,,,,Partly Cloudy,120,2012-10-10 20:40:00
3:46 PM,80.6,32.0,17,29.83,14.0,East,6.9,-,N/A,,Clear,100,2012-10-10 20:46:00
4:47 PM,82.4,32.0,16,30.16,14.0,South,9.2,-,N/A,,Partly Cloudy,170,2012-10-10 21:47:00
5:40 PM,82.4,30.2,15,30.15,14.0,East,5.8,-,N/A,,Partly Cloudy,90,2012-10-10 22:40:00
6:40 PM,83,38,12,29.68,25,ESE,2.2,,,,Partly Cloudy,120,2012-10-10 23:40:00
6:46 PM,80.6,26.6,14,29.78,14.0,Calm,Calm,-,N/A,,Clear,0,2012-10-10 23:46:00
7:46 PM,73.4,33.8,23,30.15,14.0,Calm,Calm,-,N/A,,Clear,0,2012-10-11 00:46:00
8:44 PM,68.0,35.6,30,30.16,10.0,Calm,Calm,-,N/A,,Clear,0,2012-10-11 01:44:00
9:40 PM,67,38,24,29.67,6,Calm,Calm,,,,Scattered Clouds,,2012-10-11 02:40:00